Погода Тилрикоя

Погода Тилрикоя : погода сейчас, прогноз погоды и архив. Всё, что Вы хотите узнать о погоде Тилрикоя!

Поиск расширенной информации на нашем сайте:

Полезная информация: Купить матрицы для ноутбуков http://www.hotcomputers.ru.

Другие новости

Новости СМИ2

Главная страница сайта

Новости сайта

03.07.2017

Напоминаем, что на нашем специализированном сайте Метеоцентр.Азия вы можете получить высокодетализированные автоматические прогнозы погоды по пунктам России, СНГ и мира в авиационном формате (включающие направление и скорость ветра, видимость, явления погоды, количество и форму облачности, нижнюю и верхнюю границу облачности).

Рекомендуем: Диван угловой односпальный мебель мягкая мебель диваны угловые.

Погода Тилрикоя - сегодня

Время (UTC), дата Ветер
(°,м/с) 
Видим.   Явления Облачность Т
(°С)
Тd
(°С)
f(%) Тe
(°С)
Pmin
(гПа)
dP
(гПа)
Po
(мм)
O2
(г/м3)
Тmin Tmax R s Состояние
почвы
15 01.04.18 080 (В) 40000 м    9/0 
[]
+0.8 -2 82 -1  1006.7  -2.7  752  302  -1.3  +2.1       
21 01.04.18 070 (В) 3{08}  0900 м  слаб. снег  10/10 120 м 
[]
+0.1 -0.4 96 -2  1001.5  -3  748  301  +0.1  +2.1  0.7     
21 03.04.18 тихо ()   50000 м    ясно 
[]
-4 -6.3 84 -4  1012.1  756  310  -3.9  +4.9       
15 09.04.18 240 (ЮЗ) 2{08}  35000 м    5/0 2000 м 
[]
+21.7 +6.7 38 +22  1006  -1.6  752  279  +0.1  +22.7       
15 10.04.18 020 (С) 3-9{09}  45000 м    ясно 
[]
+5.1 -4.9 48 +4  1022.1  1.8  764  303  -0.1  +6.2       
21 11.04.18 360 (С) 50000 м    ясно 
[]
-2.3 -5.5 79 -2  1028.7  0.1  768  313  -2.2  +8.6       
09 14.04.18 050 (СВ) 35000 м    ясно 
[]
+5.5 -1.5 61 +5  1027.3  -0.5  767  303  -1.8  +5.6       
00 15.04.18 тихо ()   40000 м    ясно 
[]
-1.7 -3.3 89 -2  1020.5  -0.7  762  309  -1.7  +9.4       
15 15.04.18 тихо ()   16000 м    6/0 1470 м 
[]
+7.1 +2.2 71 +7  1018.9  -1  761  299  -2.4  +9       
21 06.05.18 тихо ()   50000 м    ясно 
[]
+10.1 +6.6 79 +10  1023.5  -0.6  765  296  +10.1  +16.8       
09 10.05.18 100 (В) 35000 м    ясно 
[]
+13.1 +6.2 63 +14  1025.2  0.1  766  294  +6.5  +14.2       
09 12.05.18 080 (В) 35000 м    ясно 
[]
+15.9 +8.8 63 +17  1026.4  0.1  767  291  +3.9  +15.8       
15 21.05.18 тихо ()   40000 м    ясно 
[]
+21.6 +5.8 36 +22  1027.7  -1.6  768  286  +5.8  +22.2       
09 22.05.18 070 (В) 26000 м    5/0 
[]
+17.5 +11.6 68 +21  1023.8  -1.3  765  288  +7.8  +18.2       
15 14.06.18 //0 (С) //  35000 м    н/о 
+20.7 +7.6 43 +21  1012.7  -0.6  757  282  +13.5  +21       
00 19.06.18 //0 (С) //  35000 м    н/о 
+12.9 +9.8 81 +14  1013.2  -0.4  757  289  +12.9  +25.7       
15 23.07.18 //0 (С) //  35000 м    ясно 
[]
+27.8 +18.2 56 +42  1011.4  -0.1  756  272  +16.3  +28.6       
15 04.09.18 //0 (С) //  10 км  ливневой дождь  10/10 210 м 
[]
+16.3 +15.1 93 +25  1018.7  -0.3  761  286  +16  +19.2  0.1     
15 05.09.18 //0 (С) //  35000 м  ливневой дождь  9/0 
[]
+18.5 +16 85 +29  1019.6  0.1  762  284  +13.5  +19.7       
21 06.09.18 //0 (С) //  1000 м  в посл. час морось  ясно 
[]
+15.4 +15.5 100 +25  1018.3  0.1  761  287  +15.2  +22.8       
15 07.09.18 //0 (С) //  35000 м    9/0 
[]
+20.6 +17.9 85 +34  1018.1  -0.5  761  281  +11.5  +21.7       
09 08.09.18 //0 (С) //  19000 м    ясно 
[]
+20.6 +18.4 87 +35  1020.1  0.6  762  281  +11.4  +21       
15 10.09.18 //0 (С) //  35000 м    9/9 360 м 
[]
+17.6 +15.3 86 +26  1022.5  -0.5  764  286  +13.6  +18.7       
18 10.09.18 //0 (С) //  35000 м    9/9 450 м 
[]
+17.5 +14.5 83 +25  1022  -0.5  764  286  +17  +18.7       
00 14.09.18 //0 (С) //  35000 м    9/0 
[]
+9.8 +8.9 94 +10  1015.6  0.1  759  294  +9.7  +19.1       
Время (UTC), дата Ветер
(°,м/с) 
Видим.   Явления Облачность Т
(°С)
Тd
(°С)
f(%) Тe
(°С)
Pmin
(гПа)
dP
(гПа)
Po
(мм)
O2
(г/м3)
Тmin Tmax R s Состояние
почвы

Для получения пояснительной информации подведите курсор к названию столбца.

ПОГОДА Тилрикоя - архив

Всё, что Вы хотите узнать о погоде Тилрикоя - удобно и подробно!

Выберите нужную дату (начиная с 1 января 2015* года) и нажмите кнопку "Найти".
Будут отображены архивные сводки погоды по пункту Тилрикоя, начиная с указанной даты.


Отображать данные в формате CSV (для использования в таблицах Excel)


Внимание! Наш архив погоды предназначен исключительно для личного некоммерческого использования в познавательных целях. Если Вам необходимы официальные справки о состоянии погоды (для производственных, юридических, коммерческих и т.п. целей), обращайтесь в органы Росгидромета.

*Примечание: данная дата относится к архиву по метеостанциям СССР (Россия, СНГ, Балтия).
Архив по метеостанциям Зарубежной Европы и Азии (кроме Китая) хранится 10 дней, по другим регионам земного шара (Китай, Африка, Америка, Австралия, Океания) - 1 день.

Тилрикоя - район местоположения метеостанции


Название, широта, долгота, высота метеостанции:
Тилрикоя 58.9°ш. 26.9°д. 34 м над ур. моря [Эстония]

Дополнительная информация

В oтличие oт бoльшинства пoгoдных сайтoв мы публикуем пoдрoбную метеoинфoрмацию в детальнoм прoфессиoнальнoм фoрмате.

Характеристики температуры и влажнoсти вoздуха измеряются на высoте 2 м в тени вдали oт зданий и деревьев.
Скoрoсть ветра измеряется на высoте 10 м (на урoвне рoста челoвека скoрoсть ветра ниже в 1.5-2 раза). Если метеoстанция нахoдится в гoрoде или в лесу, тo скoрoсть ветра занижена на 2-4 м/с пo сравнению с oткрытым местoм. Скoрoсть ветра над акватoриями крупных рек и oзёр, а также на вершинах хoлмoв на 2-5 м/с выше, чем в oбычных услoвиях.
Атмoсфернoе давление в разных тoчках местнoсти мoжет значительнo oтличаться oт давления на метеoстанции, в зависимoсти oт услoвий рельефа (при пoдъёме на 10 м давление пoнижается примернo на 1 мм рт.ст.).